Lid_Strength_Index
-1 -0 0 0 1 1 1 2 2 2 3 2 2 2 2 1 1 3 6 6 8 17 17 11 10 11 11 12 15 14 13 14 14 16 17 16 17 16 19 19 18 20 20 20 20 19 20 18 17 16 13 15 13 14
-1 -1 -1 -1 -1 -1 -1 -0 0 1 1 1 1 1 1 1 1 1 6 6 6 10 15 15 12 10 9 9 11 12 13 13 13 14 15 15 16 17 16 17 17 18 16 16 15 16 17 17 13 14 15 14 16 16
-1 -1 -1 -1 -1 -1 -0 -1 -0 -0 -0 -0 -0 -0 -0 -0 -0 0 3 5 6 9 14 15 15 12 10 9 7 12 12 11 13 13 13 13 15 15 16 15 18 17 16 14 16 13 14 17 18 17 16 15 16 16
-1 -1 -1 -1 -0 -0 -0 -0 -0 -0 -0 -0 -0 -0 -0 -0 -0 -0 2 3 4 8 12 17 17 15 14 8 7 7 10 11 12 12 13 13 14 14 14 15 13 15 15 15 14 13 16 17 15 16 16 16 16 18
-1 -1 -1 -1 -1 -0 -0 -0 -0 0 -0 -0 -0 -0 -0 -0 -0 0 1 3 3 6 12 18 16 16 12 10 10 8 8 10 12 12 13 14 13 14 19 17 13 13 17 15 15 13 13 12 14 15 15 17 16 18
-0 -0 -0 -0 -0 -0 -0 -0 -0 -0 0 -0 -0 -0 -0 -0 -0 2 6 6 2 6 10 14 17 17 10 10 11 8 8 10 10 11 11 11 12 12 15 15 11 10 12 12 13 13 13 14 15 14 14 14 16 17
-0 -0 -0 -0 -0 -0 -0 -0 -0 -0 -0 -0 -0 -0 -0 -0 1 5 6 7 3 5 9 13 13 20 11 9 8 8 7 8 8 8 10 10 13 10 12 16 13 11 11 11 15 15 14 17 14 14 15 14 18 20
-0 -0 -0 -0 -0 -0 0 0 0 0 0 0 -0 -0 -0 -0 0 3 3 2 2 6 8 13 15 14 11 12 11 7 9 8 8 9 11 13 14 12 13 13 11 12 16 16 14 14 11 13 17 18 19 20 18 19
-0 -0 -0 0 0 0 0 1 0 0 0 0 0 1 1 3 5 5 0 0 3 6 10 12 16 19 12 17 16 10 10 12 14 10 10 10 13 15 14 14 12 11 12 10 15 18 19 15 13 16 18 20 17 18
-0 -0 -0 -0 0 0 1 1 2 1 1 1 3 6 7 6 1 1 4 6 7 7 8 12 19 19 11 11 12 11 11 14 14 14 15 11 12 11 11 11 11 11 11 10 11 13 20 19 15 15 16 15 14 14
-0 -0 -0 -0 0 0 1 2 1 2 2 7 7 8 6 1 5 6 9 9 9 11 10 12 15 16 13 15 13 12 15 20 17 17 14 22 20 12 11 10 10 13 15 10 9 9 9 9 10 12 14 13 15 15
-0 -0 -0 -0 -0 -0 0 1 2 3 6 6 6 5 5 7 8 10 12 11 12 13 15 12 14 16 18 17 18 16 17 17 18 18 14 23 12 12 25 22 22 23 22 18 22 13 14 13 11 11 11 15 16 16
0 0 -0 -0 -0 0 1 1 1 1 2 6 10 9 10 14 13 14 16 17 16 19 16 18 17 15 13 16 18 16 17 17 18 18 21 17 16 28 30 28 27 28 28 27 24 23 21 19 18 16 16 18 18 18
0 0 1 2 3 3 4 4 4 4 9 14 16 14 17 23 24 25 23 23 26 26 24 19 15 15 18 13 13 14 16 18 21 21 20 12 26 31 28 28 30 29 28 28 27 25 22 20 20 19 19 19 19 21
2 2 3 4 4 5 5 6 8 14 16 20 20 21 27 29 32 34 34 31 29 31 26 18 17 15 15 13 14 17 18 18 19 16 13 30 32 31 30 29 28 29 28 28 28 28 25 23 23 25 24 22 22 22
3 3 6 5 5 6 7 10 13 16 20 23 27 28 28 28 29 28 29 29 26 26 24 21 15 14 14 14 18 18 18 22 20 37 35 32 33 32 30 29 27 28 30 29 27 28 27 26 26 27 27 26 24 23
5 12 6 4 6 7 9 15 17 21 22 25 29 27 29 29 30 29 29 28 25 26 21 18 14 15 18 22 23 32 26 35 36 35 35 31 31 31 30 27 28 28 27 27 28 26 27 27 26 27 29 29 28 26
14 11 6 7 10 12 16 16 20 22 26 25 28 28 29 29 30 29 29 27 28 27 25 27 27 26 27 27 31 35 34 32 30 31 32 30 30 29 29 29 27 27 26 27 27 27 27 27 28 29 29 28 28 28
12 10 7 8 12 18 21 20 20 26 26 25 25 25 27 28 28 28 28 28 27 28 29 31 34 35 36 35 37 34 33 32 31 31 32 30 29 30 29 28 28 29 29 29 29 29 29 28 28 28 28 28 29 29
7 7 8 7 13 23 25 24 19 24 26 27 26 28 28 28 27 28 29 30 30 32 35 37 37 36 35 34 33 33 32 31 31 30 30 30 30 30 30 29 28 29 29 29 29 28 29 30 31 30 28 28 29 31
15 14 12 17 26 27 29 30 25 24 24 26 27 26 28 27 30 31 32 30 34 36 37 35 34 33 31 31 31 32 31 31 31 31 31 31 30 31 31 30 30 30 31 31 31 32 33 34 32 31 32 31 31 30
24 15 25 22 25 31 30 29 28 27 27 28 28 29 32 33 32 32 31 35 37 36 34 34 33 33 33 34 33 32 32 30 30 30 30 31 33 33 33 33 32 34 34 34 33 34 33 33 32 32 33 33 31 31
22 24 30 29 26 27 31 29 29 30 31 31 31 33 35 34 31 29 34 35 35 33 33 33 32 31 32 32 32 33 32 32 33 33 32 33 34 34 35 35 34 34 35 35 33 34 34 33 33 33 32 32 32 33
27 38 37 39 34 36 36 34 32 31 33 33 36 37 37 35 31 34 37 36 34 33 34 35 33 33 32 32 34 35 35 32 33 34 33 33 35 35 34 34 34 34 34 34 34 34 34 34 33 33 33 33 33 34
29 40 38 41 40 38 40 40 35 33 36 37 36 36 36 34 37 38 38 37 35 36 36 35 35 35 37 35 34 34 34 35 34 35 35 33 33 33 33 34 35 35 34 34 34 34 34 34 34 34 34 34 34 35
43 45 43 46 42 41 46 43 41 39 36 37 40 36 33 34 38 40 38 37 36 36 37 38 38 37 36 36 36 37 37 35 34 35 36 35 34 33 34 34 34 35 35 35 34 35 35 35 35 35 35 35 34 35
42 44 44 44 43 44 44 45 45 40 39 38 39 37 36 40 39 37 34 35 36 35 34 35 36 36 37 36 35 36 36 36 36 36 35 35 35 35 35 35 36 36 35 35 35 35 36 36 36 36 37 37 37 36
47 47 42 43 45 48 48 48 47 46 41 39 39 39 41 39 39 35 34 33 33 33 33 34 35 35 35 36 36 34 35 34 34 33 34 34 35 35 36 36 35 31 35 35 35 35 36 36 36 37 36 37 38 39
43 48 46 44 45 42 43 44 45 45 41 43 38 37 37 35 35 35 33 32 32 33 34 34 34 34 33 34 35 36 35 35 34 34 34 35 35 36 37 38 38 38 38 38 32 31 35 36 38 40 41 39 40 42
43 49 45 46 41 40 36 40 40 40 43 40 36 33 34 34 32 31 32 33 34 35 34 35 35 35 36 35 35 35 37 37 37 36 36 37 38 38 39 41 40 42 42 43 39 40 33 39 37 41 42 42 41 42
48 43 38 38 37 35 35 36 38 39 36 35 38 35 35 34 32 31 31 32 32 33 34 35 35 36 36 36 36 36 36 37 37 38 38 38 38 39 40 39 39 42 43 43 42 42 39 39 42 43 43 43 43 42
39 44 39 38 36 34 34 34 35 35 36 35 34 32 33 32 34 32 31 32 31 33 33 34 36 35 35 36 37 37 36 37 37 37 37 36 36 36 36 37 40 41 40 38 39 39 40 42 42 43 43 43 43 43
37 37 36 36 36 34 34 33 32 31 32 33 33 35 35 33 34 32 32 35 33 35 35 34 34 34 34 36 37 38 37 39 38 32 31 28 28 29 33 37 38 39 39 38 39 39 40 41 41 42 42 42 41 41